Regional Weather Roundup
Issued by NWS

Home | Current Version | Previous Version | Text Only | Print | Product List | Glossary Off
Versions: 1 2 3 4 5 6 7 8 9 10 11 12 13 14 15 16 17 18 19 20 21 22 23 24 25 26 27 28 29 30 31 32 33 34 35 36 37 38 39 40 41 42 43 44 45 46 47 48 49 50

000
ASUS43 KMKX 232200
RWRWI

WISCONSIN REGIONAL WEATHER ROUNDUP
NATIONAL WEATHER SERVICE MILWAUKEE/SULLIVAN WI
500 PM CDT FRI JUN 23 2017

NOTE: "FAIR" INDICATES FEW OR NO CLOUDS BELOW 12,000 FEET WITH NO
SIGNIFICANT WEATHER AND/OR OBSTRUCTIONS TO VISIBILITY.

WIZ001-002-006>008-014>016-023>028-232300-
NORTHWEST WISCONSIN

CITY           SKY/WX    TMP DP  RH WIND       PRES   REMARKS
SUPERIOR ARPT  NOT AVBL
ASHLAND        PTSUNNY   70  48  45 W17       29.71S
HAYWARD        CLOUDY    67  50  54 VRB6      29.74S
SIREN          PTSUNNY   71  49  45 W16G23    29.77S
CUMBERLAND     PTSUNNY   68  48  49 W16G22    29.77S
RICE LAKE      MOSUNNY   69  50  50 NW12G18   29.78R
CHETEK         MOSUNNY   70  52  52 NW10G20   29.76S
LADYSMITH      MOSUNNY   69  51  53 W16       29.76R
EAU CLAIRE     CLOUDY    72  49  44 NW17      29.76R
MENOMONIE      PTSUNNY   71  49  46 W21       29.78R
NEW RICHMOND   CLOUDY    66  50  56 NW17G28   29.81R
OSCEOLA        CLOUDY    68  53  57 NW13G20   29.82R
$$

WIZ003>005-009-010-017-018-232300-
NORTH CENTRAL WISCONSIN

CITY           SKY/WX    TMP DP  RH WIND       PRES   REMARKS
MANITOWISH WTR CLOUDY    65  49  56 NW10G17   29.71S
ARBOR VITAE    PTSUNNY   65  50  56 NW15G22   29.71R
WOODRUFF       PTSUNNY   65  50  56 NW15G22   29.71R
RHINELANDER    MOSUNNY   66  48  52 NW13      29.71S
EAGLE RIVER    PTSUNNY   67  45  44 NW15G22   29.70R
LAND O LAKES   MOSUNNY   67  45  43 W9G22     29.71S
PHILLIPS       MOSUNNY   67  49  52 NW6G20    29.72R
TOMAHAWK       NOT AVBL
MEDFORD        CLOUDY    66  50  56 W13       29.74R
MERRILL        CLOUDY    67  50  55 NW8G18    29.72R
$$

WIZ029-030-035-036-043>047-232300-
CENTRAL WISCONSIN

CITY           SKY/WX    TMP DP  RH WIND       PRES   REMARKS
WAUSAU         CLOUDY    70  52  52 W17       29.71R
MOSINEE        NOT AVBL
MARSHFIELD     CLOUDY    69  53  56 W13G21    29.74R
STEVENS POINT  PTSUNNY   68  51  54 W8G16     29.73R
WAUPACA        CLOUDY    74  51  45 W15       29.71R
WAUTOMA        NOT AVBL
WISC RAPIDS    LGT RAIN  69  53  56 W8        29.75R
CAMP DOUGLAS   NOT AVBL
$$

WIZ011>013-019>022-031-037>040-048>050-232300-
NORTHEAST WISCONSIN

CITY           SKY/WX    TMP DP  RH WIND       PRES   REMARKS
ANTIGO         CLOUDY    66  51  58 W16G23    29.71R
SHAWANO        PTSUNNY   75  51  42 W13G18    29.67S
OCONTO         CLOUDY    74  51  44 NW8       29.64R
STURGEON BAY     N/A     73  54  51 NW15        N/A
GREEN BAY      PTSUNNY   75  56  51 NW16G23   29.66R
MANITOWOC      SUNNY     76  49  38 W14G23    29.66R
APPLETON       PTSUNNY   72  46  40 W17G25    29.69R
CLINTONVILLE   PTSUNNY   73  50  43 W15       29.68S
OSHKOSH        PTSUNNY   73  53  49 NW20      29.69R
$$

WIZ032>034-041-042-053>061-232300-
SOUTHWEST WISCONSIN

CITY           SKY/WX    TMP DP  RH WIND       PRES   REMARKS
LA CROSSE      CLOUDY    75  55  49 W10       29.79R
SPARTA         PTSUNNY   69  54  58 W10G16    29.78S
VIROQUA        CLOUDY    67  55  64 NW6G20    29.81R
BOSCOBEL       CLOUDY    73  52  47 W12G24    29.80R
PRAIRIE DU CHI CLOUDY    71  51  48 W15G22    29.81R
PLATTEVILLE    SUNNY     73  55  51 W20G26    29.80R
$$

WIZ056-057-062-063-064-067-068-232300-
SOUTH CENTRAL WISCONSIN

CITY           SKY/WX    TMP DP  RH WIND       PRES   REMARKS
REEDSBURG      CLOUDY    71  54  54 W16G24    29.75R
BARABOO/DELLS  CLOUDY    72  51  48 NW12G18   29.75R
LONE ROCK      CLOUDY    72  54  53 NW15G24   29.77R
MINERAL POINT  CLOUDY    72  54  53 W14G22    29.79R
MADISON        PTSUNNY   74  52  46 NW10G20   29.73R
MIDDLETON      MOSUNNY   75  53  46 NW17      29.74R
WATERTOWN      MOSUNNY   77  52  41 W16G23    29.70R
MONROE         MOSUNNY   75  50  41 W17G26    29.75R
JANESVILLE     PTSUNNY   81  45  28 W14       29.71S
$$

WIZ051-052-058>065-066-070>072-232300-
SOUTHEAST WISCONSIN

CITY           SKY/WX    TMP DP  RH WIND       PRES   REMARKS
MILWAUKEE      PTSUNNY   81  50  33 W15       29.68S HX  80
WAUKESHA       PTSUNNY   77  52  41 W13G26    29.71R
MILWAUKEE/TIMM CLOUDY    77  48  36 W14G22    29.69S
RACINE         CLOUDY    79  48  33 W10       29.71R
KENOSHA        MOSUNNY   78  54  43 W13       29.70S
FOND DU LAC    SUNNY     75  51  43 NW13G23   29.69R
SHEBOYGAN      PTSUNNY   76  55  48 NW16G23   29.67R
WEST BEND      MOSUNNY   75  48  38 W17G26    29.68R
JUNEAU         PTSUNNY   75  52  43 W10G17    29.71S
$$

LSZ147-162-232300-
LAKE SUPERIOR

STATION/POSITION TIME  TEMP    WIND        PRES    WAVE
                       AIR SEA DIR/SP/G            HT/PER
                 (UTC) (F)     (DEG/KT/KT) (MB)    (FT/S)
W MID LAKE BUOY  2050   48 39  250/ 14/ 16 1003.9R   2/ 4
DEVILS ISLAND    2100   58     250/ 11/ 15 1005.2R
SAXON HARBOR     2130   65     300/  3/  5 1005.8S
$$

LMZ867-665-643>646-232300-
LAKE MICHIGAN

STATION/POSITION TIME  TEMP    WIND        PRES    WAVE
                       AIR SEA DIR/SP/G            HT/PER
                 (UTC) (F)     (DEG/KT/KT) (MB)    (FT/S)
CHAMBERS ISLAND  2140   74     310/  6/ 10 1002.7R
S GREEN BAY BUOY 2130   72     280/ 16/ 19 1003.5R
N MID LAKE BUOY  2050   61 56  190/ 10/ 12 1002.5F   1
NORTHPORT PIER   2140   72     310/  9/ 15 1002.7R
KEWAUNEE LAKESHO 2130   77     290/ 13/ 18 1003.3R
SHEBOYGAN LAKESH 2100   77     270/ 16/ 20 1003.5S
PORT WASHINGTON  2140   80     300/ 10/ 16 1005.4R
ATWATER BUOY     2009   72 59  290/ 12/ 14 1005.1F
MILWAUKEE LAKESH 2130   78     290/ 13/ 16   N/A
S MID LAKE BUOY  2050   65 63  220/  6/  8 1005.2F   0
KENOSHA   LAKESH 2100   79     310/ 11/ 17 1005.1
$$

TC  - TEMPERATURE IN CELSIUS
VSB - VISIBILITY IN STATUTE MILES
WCI - WIND CHILL INDEX
HX  - HEAT INDEX





USA.gov is the U.S. government's official web portal to all federal, state and local government web resources and services.